Cairns Airport

Airport
ICAO code: 
YBCS
IATA Code: 
CNS
Summary
ICAO Region: 
APAC
Territory: 
Location: 
Cairns, Queensland
Serving: 
Cairns
Elevation: 
10 ft
Coordinates: 
Aerial View: 
16° 52' 35.533" S, 145° 45' 14.544" E
Metar
Observation
YBCS 210430Z AUTO 13020KT 9999 -RA SCT023 BKN033 BKN054 28/23 Q1007
Station
Cairns Airport
Date/Time
2022-01-21 04:30:00
Wind direction
130°
Wind speed
20 kts
Lowest cloud amount
scattered clouds
Temperature
28°C
Dew point
23°C
Humidity
74%
QNH
1007 hPa
Weather condition
light rain

Description

Cairns Airport is an international airport in Cairns, Queensland, Australia.

Climatology

Humid “subtropical” climate (Köppen climate classification Cfa) - characterized by hot, humid summers and cool winters. Significant amounts of precipitation occur in all seasons in most areas. Most summer rainfall occurs during thunderstorms and occasional tropical storms.

Runways

Designator Length Width Surface Rops
12/30 925 18 ASP Yes/Yes
15/33 3197 45 ASP Yes/Yes
Airport map: 
Aerial View: 

SKYbrary Partners:

Safety knowledge contributed by: